Thibaut Dromigny

Thibaut Dromigny

Statistiques 2026

  • Courses courues : 170
  • Nb de victoires : 11
  • Nb de places : 45
  • Écart gagnant : 3
  • Réussite à la gagne : 6%
  • Réussite à la place : 26%
Musique : Da 5a Aa 1a 2a 4a 7m 6a 6a 5a 0a 0a 7m 1m 2m 2a 2m 2a
DateRangCatégorieAlloc.Dist.HippodromeChevalRed. KmSpé.
04/11/22 D Trot 33 000€ 2 700m Le Croise Laroche Dilf de Chamant Attelé
06/11/22 4 Trot 11 000€ 2 200m Strasbourg Kristal des Moyeux 1'18"5 Attelé
06/11/22 0 Trot 13 000€ 2 800m Strasbourg Ixie Sautreuil Attelé
06/11/22 0 Trot 20 000€ 2 800m Strasbourg Godwin Djoc Attelé
07/11/22 2 Trot 24 000€ 2 650m Marseille Vivaux Hiro Magis 1'16"3 Monté
09/11/22 8 Trot 25 000€ 2 650m Saint Galmier Fine du Colombier 1'16"6 Monté
10/11/22 2 Trot 39 000€ 2 700m Vincennes I Love Igny 1'13"7 Attelé
11/11/22 4 Trot 13 000€ 2 400m Chateaubriant Just Love d'Alsace 1'17"8 Monté
11/11/22 D Trot 13 000€ 2 400m Chateaubriant Jade Or l'Espoir Monté
14/11/22 5 Trot 26 000€ 2 825m Le Croise Laroche Emir Petteviniere 1'15"5 Attelé
14/11/22 D Trot 20 000€ 2 700m Le Croise Laroche Gamine de Ribeau Attelé
15/11/22 8 Trot 33 000€ 2 100m Vincennes Irma Babel 1'13"7 Attelé
25/11/22 6 Trot 29 000€ 2 975m Toulouse Emir de Chenu 1'15"9 Monté
26/11/22 4 Trot 20 000€ 2 550m Reims Hidao de la Goutte 1'14"0 Attelé
02/12/22 D Trot 39 000€ 2 850m Vincennes I Love Igny Attelé
02/12/22 2 Trot 17 000€ 2 800m Chartres Haribelo de Nuit 1'15"6 Attelé
02/12/22 6 Trot 27 000€ 2 800m Chartres Fidelio du Loisir 1'15"9 Monté
03/12/22 0 Trot 39 000€ 2 700m Vincennes Hidao de la Goutte Attelé lire

Jamais loin dans le parcours, a progressé en épaisseur le nez au vent dans la montée avant de marquer le pas.

12/12/22 1 Trot 29 000€ 3 025m Marseille Borely Hakim de Chenu 1'14"5 Monté
11/12/22 D Trot 12 000€ 2 100m Lyon Parilly Kimie Jihem Attelé
13/12/22 D Trot 32 000€ 2 200m Vincennes Kel Amor Torino Monté
15/12/22 6 Trot 19 000€ 2 750m Cabourg Just Love d'Alsace 1'20"5 Monté
16/12/22 D Trot 39 000€ 2 175m Vincennes I Love Igny Attelé lire

A rapidement été sanctionné.

16/12/22 4 Trot 33 000€ 2 700m Vincennes Java du Gilet 1'17"1 Monté
21/12/22 5 Trot 12 000€ 2 300m Argentan Kev de Jafa 1'19"7 Monté
30/12/22 5 Trot 35 000€ 2 925m Cagnes Sur Mer Express Duo 1'15"7 Monté
02/01/23 6 Trot 32 000€ 2 200m Vincennes Kev de Jafa 1'18"3 Monté
07/01/23 D Trot 15 000€ 2 875m Argentan Jolie Honey Monté
10/01/23 2 Trot 10 000€ 2 700m Lyon La Soie Ibis Rock 1'17"4 Attelé
10/01/23 D Trot 16 000€ 2 050m Lyon La Soie Hit de Jobi Attelé
10/01/23 5 Trot 24 000€ 2 700m Lyon La Soie Eaubeline du Home 1'15"5 Attelé
11/01/23 5 Trot 28 000€ 2 925m Cagnes Sur Mer Furioso A Quira 1'14"9 Monté
12/01/23 3 Trot 36 000€ 2 950m Cagnes Sur Mer Hakim de Chenu 1'13"7 Monté lire

Après avoir attendu en retrait, a comblé du terrain tout au long de la phase finale.

14/01/23 0 Trot 20 000€ 2 850m Mauquenchy Iodosis Monté
14/01/23 6 Trot 23 000€ 2 850m Mauquenchy Eaubeline du Home 1'16"1 Attelé
15/01/23 2 Trot 22 000€ 2 700m Lyon La Soie Geronimo Stardust 1'16"5 Attelé
17/01/23 1 Trot 39 000€ 2 175m Vincennes Hit de Jobi 1'12"5 Attelé lire

Principal animateur, a su se montrer facilement le plus fort pour finir.

21/01/23 3 Trot 22 000€ 2 050m Lyon La Soie Haudatis 1'16"0 Attelé
22/01/23 0 Trot 16 000€ 2 400m Chateaubriant Gaby des Moyeux Attelé
26/01/23 5 Trot 44 000€ 2 700m Vincennes I Love Igny 1'14"9 Attelé lire

Longtemps en queue de peloton, a rejoint les animateurs dans le tournant final avant de plafonner.

29/01/23 3 Trot 16 000€ 2 700m Lyon La Soie Jelsi 1'17"8 Monté
30/01/23 3 Trot 20 000€ 2 325m Toulouse Hermine Thonic 1'16"8 Monté
04/02/23 1 Trot 23 000€ 2 850m Mauquenchy Geronimo Stardust 1'15"9 Attelé
04/02/23 D Trot 20 000€ 2 850m Mauquenchy Jackpot Booster Attelé
10/02/23 D Trot 20 000€ 2 900m Argentan Irma Babel Attelé
10/02/23 6 Trot 20 000€ 2 150m Argentan Heroica 1'15"4 Attelé
11/02/23 0 Trot 39 000€ 2 700m Vincennes I Love Igny Attelé
12/02/23 3 Trot 14 000€ 2 000m Saint Galmier Kristal des Moyeux 1'17"0 Attelé
12/02/23 D Trot 17 000€ 2 650m Saint Galmier Jalezio Attelé
12/02/23 D Trot 20 000€ 2 675m Saint Galmier Hermine Thonic Monté